When you browse on this site, cookies collect data to enhance your experience and personalize the content and advertising you see.
Visit our Privacy Policy to learn more. By continuing to use the site, you agree to this use of cookies and data.
  • In Hungary
  • List of Countries
  • For 7 days
  • Water Temperature
  • Weather Map
  • News
  • Weather Widgets
  • user-avatar
    Login

    Hourly Weather Mramorskoe

    Today, 29 January, Wednesday

    Time Temperature Precipitation Wind Pressure Humidity
    00:00 -27°C° 0 mm 4 mps 734 mmHg 93%
    01:00 -27°C° 0 mm 3 mps 735 mmHg 93%
    02:00 -27°C° 0 mm 3 mps 735 mmHg 93%
    03:00 -27°C° 0 mm 3 mps 735 mmHg 93%
    04:00 -27°C° 0 mm 3 mps 736 mmHg 93%
    05:00 -27°C° 0 mm 3 mps 736 mmHg 94%
    06:00 -29°C° 0 mm 3 mps 736 mmHg 94%
    07:00 -27°C° 0 mm 2 mps 736 mmHg 94%
    08:00 -26°C° 0 mm 2 mps 736 mmHg 93%
    09:00 -25°C° 0 mm 2 mps 737 mmHg 92%
    10:00 -24°C° 0 mm 2 mps 737 mmHg 91%
    11:00 -21°C° 0 mm 2 mps 737 mmHg 89%
    12:00 -20°C° 0 mm 2 mps 737 mmHg 87%
    13:00 -18°C° 0 mm 2 mps 737 mmHg 85%
    14:00 -19°C° 0 mm 2 mps 737 mmHg 88%
    15:00 -19°C° 0 mm 2 mps 737 mmHg 90%
    16:00 -18°C° 0 mm 1 mps 737 mmHg 92%
    17:00 -18°C° 0 mm 1 mps 737 mmHg 92%
    18:00 -17°C° 0 mm 1 mps 737 mmHg 91%
    19:00 -17°C° 0 mm 1 mps 737 mmHg 91%
    20:00 -17°C° 0 mm 1 mps 737 mmHg 90%
    21:00 -17°C° 0 mm 1 mps 737 mmHg 90%
    22:00 -16°C° 0 mm 1 mps 736 mmHg 89%
    23:00 -16°C° 0 mm 1 mps 736 mmHg 88%

    Tomorrow, 30 January, Thursday

    Time Temperature Precipitation Wind Pressure Humidity
    00:00 -15°C° 0 mm 1 mps 736 mmHg 87%
    01:00 -15°C° 0 mm 1 mps 736 mmHg 86%
    02:00 -15°C° 0 mm 1 mps 736 mmHg 85%
    03:00 -14°C° 0 mm 1 mps 736 mmHg 85%
    04:00 -14°C° 0 mm 1 mps 736 mmHg 84%
    05:00 -14°C° 0 mm 1 mps 735 mmHg 83%
    06:00 -14°C° 0 mm 1 mps 735 mmHg 82%
    07:00 -14°C° 0 mm 1 mps 735 mmHg 82%
    08:00 -13°C° 0 mm 1 mps 735 mmHg 80%
    09:00 -12°C° 0 mm 1 mps 735 mmHg 79%
    10:00 -11°C° 0 mm 1 mps 734 mmHg 77%
    11:00 -11°C° 0 mm 1 mps 734 mmHg 78%
    12:00 -10°C° 0 mm 1 mps 734 mmHg 78%
    13:00 -10°C° 0 mm 2 mps 733 mmHg 79%
    14:00 -12°C° 0 mm 2 mps 733 mmHg 82%
    15:00 -11°C° 0 mm 1 mps 733 mmHg 86%
    16:00 -11°C° 0 mm 1 mps 732 mmHg 90%
    17:00 -11°C° 0 mm 1 mps 732 mmHg 90%
    18:00 -12°C° 0 mm 1 mps 732 mmHg 91%
    19:00 -12°C° 0 mm 1 mps 732 mmHg 92%
    20:00 -11°C° 0.1 mm 1 mps 732 mmHg 93%
    21:00 -11°C° 0.1 mm 1 mps 732 mmHg 95%
    22:00 -10°C° 0.1 mm 1 mps 732 mmHg 96%
    23:00 -10°C° 0.1 mm 1 mps 732 mmHg 96%

    Day after tomorrow, 31 January, Friday

    Time Temperature Precipitation Wind Pressure Humidity
    00:00 -10°C° 0.1 mm 1 mps 732 mmHg 96%
    01:00 -10°C° 0.1 mm 1 mps 732 mmHg 96%
    02:00 -9°C° 0.1 mm 1 mps 732 mmHg 96%
    03:00 -9°C° 0.1 mm 1 mps 731 mmHg 96%
    04:00 -9°C° 0.1 mm 1 mps 731 mmHg 96%
    05:00 -9°C° 0.1 mm 1 mps 731 mmHg 96%
    06:00 -9°C° 0.1 mm 1 mps 731 mmHg 96%
    07:00 -9°C° 0.1 mm 1 mps 731 mmHg 96%
    08:00 -8°C° 0 mm 1 mps 731 mmHg 96%
    09:00 -7°C° 0 mm 1 mps 731 mmHg 95%
    10:00 -7°C° 0 mm 1 mps 732 mmHg 94%
    11:00 -6°C° 0 mm 1 mps 731 mmHg 94%
    12:00 -6°C° 0 mm 2 mps 731 mmHg 94%
    13:00 -6°C° 0 mm 2 mps 731 mmHg 93%
    14:00 -6°C° 0 mm 2 mps 731 mmHg 94%
    15:00 -7°C° 0 mm 2 mps 731 mmHg 95%
    16:00 -8°C° 0 mm 2 mps 730 mmHg 96%
    17:00 -9°C° 0 mm 2 mps 730 mmHg 97%
    18:00 -9°C° 0 mm 2 mps 730 mmHg 97%
    19:00 -10°C° 0 mm 2 mps 730 mmHg 98%
    20:00 -10°C° 0 mm 2 mps 729 mmHg 97%
    21:00 -9°C° 0 mm 1 mps 729 mmHg 96%
    22:00 -9°C° 0 mm 1 mps 729 mmHg 95%
    23:00 -9°C° 0 mm 1 mps 729 mmHg 95%

    1 February, Saturday

    Time Temperature Precipitation Wind Pressure Humidity
    00:00 -9°C° 0 mm 1 mps 729 mmHg 94%
    01:00 -9°C° 0 mm 1 mps 728 mmHg 94%
    02:00 -9°C° 0 mm 1 mps 728 mmHg 94%
    03:00 -9°C° 0 mm 1 mps 728 mmHg 94%
    04:00 -8°C° 0 mm 1 mps 728 mmHg 94%
    05:00 -8°C° 0 mm 1 mps 728 mmHg 93%
    06:00 -9°C° 0 mm 2 mps 728 mmHg 93%
    07:00 -9°C° 0 mm 2 mps 728 mmHg 93%
    08:00 -8°C° 0 mm 2 mps 728 mmHg 91%
    09:00 -8°C° 0 mm 2 mps 728 mmHg 90%
    10:00 -9°C° 0 mm 3 mps 728 mmHg 88%
    11:00 -8°C° 0 mm 3 mps 727 mmHg 88%
    12:00 -8°C° 0 mm 3 mps 727 mmHg 87%
    13:00 -7°C° 0 mm 3 mps 727 mmHg 87%
    14:00 -8°C° 0 mm 3 mps 727 mmHg 87%
    15:00 -8°C° 0 mm 3 mps 726 mmHg 87%
    16:00 -8°C° 0 mm 3 mps 726 mmHg 88%
    17:00 -9°C° 0 mm 3 mps 726 mmHg 89%
    18:00 -8°C° 0 mm 2 mps 726 mmHg 89%
    19:00 -9°C° 0 mm 2 mps 725 mmHg 90%
    20:00 -9°C° 0.1 mm 2 mps 725 mmHg 91%
    21:00 -9°C° 0.1 mm 2 mps 725 mmHg 93%
    22:00 -9°C° 0.1 mm 2 mps 725 mmHg 94%
    23:00 -9°C° 0.4 mm 2 mps 725 mmHg 95%

    2 February, Sunday

    Time Temperature Precipitation Wind Pressure Humidity
    00:00 -8°C° 0.4 mm 2 mps 725 mmHg 95%
    01:00 -8°C° 0.4 mm 2 mps 725 mmHg 95%
    02:00 -8°C° 0.1 mm 2 mps 725 mmHg 95%
    03:00 -9°C° 0.1 mm 2 mps 725 mmHg 95%
    04:00 -9°C° 0.1 mm 2 mps 726 mmHg 94%
    05:00 -10°C° 0 mm 2 mps 726 mmHg 94%
    06:00 -12°C° 0 mm 2 mps 726 mmHg 94%
    07:00 -13°C° 0 mm 2 mps 726 mmHg 94%
    08:00 -12°C° 0 mm 2 mps 726 mmHg 93%
    09:00 -12°C° 0 mm 2 mps 727 mmHg 92%
    10:00 -10°C° 0 mm 2 mps 727 mmHg 91%
    11:00 -9°C° 0 mm 2 mps 727 mmHg 89%
    12:00 -8°C° 0 mm 2 mps 727 mmHg 88%
    13:00 -7°C° 0 mm 2 mps 728 mmHg 87%
    14:00 -8°C° 0 mm 2 mps 728 mmHg 89%
    15:00 -8°C° 0 mm 2 mps 728 mmHg 91%
    16:00 -9°C° 0 mm 2 mps 728 mmHg 93%
    17:00 -10°C° 0 mm 2 mps 728 mmHg 94%
    18:00 -13°C° 0 mm 2 mps 728 mmHg 94%
    19:00 -14°C° 0 mm 2 mps 728 mmHg 94%
    20:00 -14°C° 0 mm 2 mps 728 mmHg 95%
    21:00 -14°C° 0 mm 2 mps 728 mmHg 95%
    22:00 -15°C° 0 mm 2 mps 728 mmHg 95%
    23:00 -15°C° 0 mm 2 mps 728 mmHg 95%

    3 February, Monday

    Time Temperature Precipitation Wind Pressure Humidity
    00:00 -15°C° 0 mm 2 mps 728 mmHg 95%
    01:00 -15°C° 0 mm 2 mps 728 mmHg 95%
    02:00 -15°C° 0 mm 2 mps 728 mmHg 95%
    03:00 -16°C° 0 mm 2 mps 728 mmHg 95%
    04:00 -16°C° 0 mm 2 mps 728 mmHg 95%
    05:00 -16°C° 0 mm 2 mps 728 mmHg 95%
    06:00 -16°C° 0 mm 2 mps 728 mmHg 95%
    07:00 -16°C° 0 mm 2 mps 727 mmHg 95%
    08:00 -15°C° 0 mm 2 mps 727 mmHg 93%
    09:00 -13°C° 0 mm 2 mps 727 mmHg 92%
    10:00 -12°C° 0 mm 2 mps 727 mmHg 91%
    11:00 -12°C° 0 mm 3 mps 727 mmHg 89%
    12:00 -9°C° 0 mm 3 mps 727 mmHg 88%
    13:00 -8°C° 0 mm 3 mps 726 mmHg 86%
    14:00 -8°C° 0 mm 2 mps 726 mmHg 88%
    15:00 -8°C° 0 mm 2 mps 725 mmHg 90%
    16:00 -9°C° 0 mm 2 mps 725 mmHg 92%
    17:00 -10°C° 0 mm 2 mps 725 mmHg 92%
    18:00 -10°C° 0 mm 2 mps 724 mmHg 92%
    19:00 -12°C° 0 mm 2 mps 724 mmHg 93%
    20:00 -12°C° 0 mm 2 mps 724 mmHg 92%
    21:00 -12°C° 0 mm 2 mps 723 mmHg 91%
    22:00 -10°C° 0 mm 2 mps 723 mmHg 90%
    23:00 -10°C° 0 mm 2 mps 722 mmHg 90%
    Show more